Overview Statistics Trail Chart Weather Telemetry Raw packets
 

This is the latest recevied weather packets stored in our database for station/object AI5BL. If no packets are shown the sender has not sent any weather packets the latest 10 day(s).

<< 106 107 108 109 110 111 112 >>
Time Temp. Humidity Pressure Rain* Wind** Luminosity Snow
1787845694 25° C 95% 1019 hPa 0 mm - 237 W/m² -
1787845392 25° C 96% 1019.2 hPa 0 mm - 260 W/m² -
1787845089 25° C 96% 1019 hPa 0 mm - 239 W/m² -
1787844785 25° C 95% 1019.2 hPa 0 mm - 223 W/m² -
1787844483 24.44° C 95% 1019.1 hPa 0 mm - 214 W/m² -
1787844179 24.44° C 96% 1019.2 hPa 0 mm - 206 W/m² -
1787843881 24.44° C 98% 1019.2 hPa 0 mm - 184 W/m² -
1787843573 24.44° C 98% 1019.3 hPa 0 mm - 193 W/m² -
1787843269 23.89° C 98% 1019 hPa 0 mm - 211 W/m² -
1787842965 23.89° C 99% 1018.9 hPa 0 mm - 211 W/m² -
1787842664 23.33° C 99% 1018.8 hPa 0 mm - 202 W/m² -
1787842360 23.89° C 99% 1018.9 hPa 0 mm - 190 W/m² -
1787842060 23.33° C 99% 1018.8 hPa 1.78 mm - 174 W/m² -
1787841756 23.33° C 99% 1019 hPa 1.78 mm - 153 W/m² -
1787841451 22.78° C 99% 1018.9 hPa 0 mm - 128 W/m² -
1787841150 22.78° C 99% 1018.9 hPa 0 mm - 112 W/m² -
1787840845 22.78° C 99% 1019.1 hPa 0 mm - 97 W/m² -
1787840541 22.78° C 99% 1018.9 hPa 0 mm - 83 W/m² -
1787840235 22.78° C 99% 1019 hPa 0 mm - 70 W/m² -
1787839935 22.78° C 99% 1018.9 hPa 0 mm - 67 W/m² -
1787839630 22.78° C 99% 1018.8 hPa 0 mm - 60 W/m² -
1787839325 22.78° C 99% 1018.9 hPa 0 mm - 53 W/m² -
1787839025 22.78° C 99% 1018.7 hPa 1.27 mm - 46 W/m² -
1787838724 22.78° C 99% 1018.7 hPa 1.27 mm - 41 W/m² -
1787838423 22.78° C 99% 1018.8 hPa 0 mm - 38 W/m² -

* Rain latest hour (hover to see other rain measurements)
** Current wind speed in m/s (hover to see current wind gust speed)